Home   Weather   Rockford   Past weeks

Flag for USA Past Weather in Rockford, Illinois, USA — Yesterday and Last 2 Weeks

Now
22 °F

Light snow. Overcast.


Feels Like: 12 °F
Forecast: 17 / 23 °F
Wind: 9 mph from Northwest

Location: Greater Rockford Airport

Current Time: Dec 9, 2016 at 9:28:19 am

Latest Report: Dec 9, 2016 at 8:54 am


Visibility: 8 mi

Pressure: 30.59 "Hg

Humidity: 75%

Dew Point: 15 °F

Location of RockfordLocation

Past Weather in Rockford — Graph

°F

Rockford Temperature Yesterday

Maximum temperature yesterday: 24 °F (at 5:54 pm)
Minimum temperature yesterday: 15 °F (at 5:54 am)
Average temperature yesterday: 21 °F

High & Low Weather Summary for the Past Weeks

 TemperatureHumidityPressure
High53 °F (Nov 29, 1:54 pm)100% (Dec 6, 2:54 am)30.57 "Hg (Dec 6, 2:54 am)
Low15 °F (Dec 8, 5:54 am)56% (Nov 29, 1:54 pm)29.15 "Hg (Nov 28, 8:54 pm)
Average35 °F81%30.02 "Hg
* Reported Nov 24 7:54 am — Dec 9 7:54 am, Rockford, Weather by CustomWeather, © 2016

Note: Actual official high and low records may vary slightly from our data, if they occured in-between our weather recording intervals... More about our weather records

Advertising

Rockford Weather History for the Previous 24 Hours

Scroll right to see more
 ConditionsComfort  
Time TempWeatherWind HumidityBarometerVisibility
7:54 am
Fri, Dec 9
22 °FLight snow. Overcast.10 mph78%30.57 "Hg8 mi
6:54 am22 °FLight snow. Overcast.10 mph78%30.56 "Hg10 mi
5:54 am22 °FLight snow. Overcast.9 mph78%30.55 "Hg10 mi
4:54 am22 °FLight snow. Overcast.14 mph78%30.53 "Hg10 mi
3:54 am22 °FLight snow. Overcast.10 mph78%30.53 "Hg10 mi
2:54 am22 °FLight snow. Overcast.9 mph78%30.52 "Hg10 mi
1:54 am22 °FLight snow. Overcast.9 mph78%30.51 "Hg10 mi
12:54 am22 °FLight snow. Overcast.8 mph78%30.50 "Hg10 mi
11:54 pm
Thu, Dec 8
22 °FOvercast.10 mph78%30.50 "Hg10 mi
10:54 pm22 °FOvercast.12 mph78%30.49 "Hg10 mi
9:54 pm23 °FLight snow. Overcast.13 mph74%30.47 "Hg10 mi
8:54 pm23 °FLight snow. Overcast.14 mph74%30.47 "Hg10 mi
7:54 pm23 °FLight snow. Overcast.14 mph74%30.46 "Hg10 mi
6:54 pm23 °FLight snow. Overcast.13 mph74%30.46 "Hg10 mi
5:54 pm24 °FLight snow. Overcast.16 mph71%30.45 "Hg10 mi
4:54 pm23 °FLight snow. Overcast.15 mph72%30.44 "Hg10 mi
3:54 pm23 °FLight snow. Overcast.18 mph72%30.42 "Hg10 mi
2:54 pm22 °FLight snow. Overcast.15 mph72%30.40 "Hg10 mi
1:54 pm22 °FLight snow. Overcast.16 mph72%30.37 "Hg10 mi
12:54 pm21 °FLight snow. Overcast.18 mph71%30.37 "Hg10 mi
11:54 am19 °FLight snow. Overcast.13 mph74%30.36 "Hg10 mi
10:54 am18 °FLight snow. Overcast.21 mph74%30.36 "Hg10 mi
9:54 am18 °FLight snow. Partly sunny.21 mph68%30.35 "Hg10 mi
Weather by CustomWeather, © 2016

See weather overviewHow to use our weather pages